Location: Demmingen
(48.6757°N, 10.4375°E)
Time: 21:22:51
(UTC+00:00)

NPP - Pass Details

Date: 23 May 2024
Orbit: 826 x 827 km, 98.7° (Epoch: 14 June)

Event Time Altitude Azimuth Distance (km) Brightness Sun altitude
Rises 00:59:16 0° 16° (NNE) 3,378 8.5 -16.9°
Reaches altitude 10° 01:01:39 10° 19° (NNE) 2,441 7.4 -16.7°
Maximum altitude 01:07:02 68° 103° (ESE) 890 3.8 -16.3°
Enters shadow 01:10:34 22° 182° (S) 1,736 4.8 -16.0°
